Location: Edmonton
(53.5500°N, 113.5000°W)
Time: 19:41:42
(UTC-07:00)

Daily predictions for brighter satellites

Satellite Brightness Start Highest point End
(mag) Time Altitude Azimuth Time Altitude Azimuth Time Altitude Azimuth
IRAS Rocket 4.5 16:47:44 10° SE 16:52:56 46° ENE 16:58:10 10° N
Okean O Rocket 4.3 16:50:58 10° SW 16:54:26 22° W 16:57:55 10° NW
USA 229 DEB 3.9 16:49:12 10° WSW 16:56:01 72° NW 17:03:05 10° NE
USA 229 3.9 16:49:18 10° WSW 16:56:07 72° NW 17:03:11 10° NE
Cosmos 1674 Rocket 3.7 16:53:04 10° S 16:57:16 54° E 17:01:30 10° NNE
NOSS 3-1 (A) 3.6 16:53:01 10° SSW 16:58:51 67° SE 17:05:34 10° NE
CSL-04 Debris 4.5 16:55:06 10° SE 17:00:11 44° ENE 17:05:17 10° N
Cosmos 2263 Rocket 4.0 16:59:19 10° NNW 17:02:06 14° N 17:04:54 10° NE
USA 215 4.1 16:57:09 10° SE 17:03:34 57° SW 17:09:59 10° WNW
PAYLOAD A 4.5 16:58:28 10° S 17:03:35 72° WSW 17:08:56 10° NNW
Cosmos 1378 Rocket 4.1 16:59:49 10° SSE 17:03:58 40° E 17:08:08 10° NNE
Cosmos 1092 Rocket 4.0 16:58:41 10° N 17:04:57 81° E 17:11:14 10° SSE
Cosmos 1634 Rocket 4.4 16:59:08 10° SSE 17:04:58 44° E 17:10:53 10° NNE
Cosmos 1655 Rocket 4.3 17:02:54 10° N 17:09:01 46° ENE 17:15:07 10° SE
Okean 3 3.6 17:05:55 10° S 17:10:00 54° E 17:14:09 10° NNE
Cosmos 1777 Rocket 4.3 17:05:31 10° SW 17:10:44 69° WNW 17:15:59 10° NNE
Cosmos 1743 3.6 17:08:21 10° N 17:11:43 27° ENE 17:15:05 10° SE
SL-24 R/B 4.4 17:08:06 10° N 17:13:08 81° E 17:17:56 10° S
Meteor 1-12 Rocket 4.4 17:08:07 10° N 17:13:39 52° ENE 17:19:13 10° SSE
Okean-O 3.9 17:10:10 10° S 17:14:25 45° W 17:18:43 10° NNW
Cosmos 389 Rocket 3.1 17:11:35 10° N 17:14:48 32° ENE 17:17:58 10° SE
Aureole 1 Rocket 3.8 17:11:27 10° NNW 17:16:44 77° ENE 17:23:42 10° SSE
Cosmos 2195 Rocket 4.4 17:12:18 10° N 17:18:32 74° ENE 17:24:39 10° SSE
Cosmos 2369 Rocket 2.6 17:14:25 10° SW 17:19:58 60° NW 17:25:32 10° NNE
BREEZE-M DEB (TANK) 3.9 17:18:37 10° WSW 17:20:29 23° S 17:23:41 10° SE
Cosmos 1898 Rocket 4.0 17:15:49 10° S 17:20:39 41° ESE 17:25:34 10° NE
CSL-04 Rocket 3.7 17:16:00 10° SSE 17:21:23 67° ENE 17:26:53 10° NNW
Cosmos 2026 Rocket 4.0 17:15:38 10° N 17:22:03 71° ENE 17:28:23 10° SSE
Cosmos 1818 4.1 17:17:05 10° SSW 17:22:13 44° ESE 17:26:56 12° NE
Ariane Rocket 3.0 17:18:58 10° SSE 17:23:57 61° ENE 17:28:56 10° N
IDEFIX/ARIANE 42P 3.6 17:19:45 10° S 17:24:47 51° W 17:29:52 10° NNW
Cosmos 2082 4.0 17:20:12 10° NNW 17:25:34 43° NE 17:30:54 10° ESE
CENTAUR R/B 3.4 17:20:40 10° NW 17:27:30 43° NNE 17:34:47 11° E
Cosmos 2263 4.5 17:22:33 10° SW 17:28:12 70° NW 17:33:58 10° NNE
Cosmos 2034 Rocket 4.5 17:22:32 10° SSW 17:28:47 64° WNW 17:35:00 10° N
COSMOS 2455 4.3 17:25:14 10° NW 17:29:55 22° N 17:33:59 12° NE
SMAP 3.0 17:28:06 10° SSE 17:32:42 65° ENE 17:37:20 10° N
METEOR-M 4.5 17:28:17 10° SE 17:33:16 41° ENE 17:38:16 10° N
AQUARIUS 4.1 17:30:10 10° SSE 17:34:37 65° ENE 17:39:06 10° N
Cosmos 1048 Rocket 4.5 17:29:58 10° NNW 17:35:02 39° NE 17:40:05 10° ESE
Cosmos 1937 Rocket 4.0 17:30:27 10° S 17:35:13 39° ESE 17:39:30 13° NE
Cosmos 724 4.3 17:29:46 10° NW 17:35:31 58° NE 17:41:14 10° ESE
Okean 1 3.6 17:32:47 10° SSE 17:36:35 45° E 17:40:23 10° NNE
Cosmos 1500 3.5 17:33:05 10° NNW 17:36:53 68° W 17:40:37 10° S
IRS-1A Rocket 4.3 17:32:10 10° SE 17:37:35 55° ENE 17:42:58 10° N
Cosmos 1271 Rocket 2.8 17:35:51 10° N 17:39:33 48° ENE 17:43:14 10° SSE
Cosmos 2227 Rocket 2.2 17:34:16 10° NNW 17:39:54 60° NE 17:45:30 10° SE
Cosmos 2219 3.6 17:37:00 10° NW 17:42:35 67° WSW 17:48:09 10° SSE
Cosmos 1455 Rocket 3.2 17:39:10 10° N 17:43:30 49° ENE 17:47:46 10° SSE
Cosmos 1656 Rocket 3.6 17:38:23 10° SSW 17:43:54 75° ESE 17:48:57 12° NE
ALOS 3.0 17:40:11 10° ESE 17:44:15 31° ENE 17:48:20 10° N
Cosmos 1975 2.8 17:40:37 10° N 17:44:40 85° E 17:48:43 10° SSE
USA 238 DEB 3.8 17:38:14 10° NW 17:45:22 89° NE 17:52:34 10° SE
USA 238 3.8 17:38:21 10° NW 17:45:28 88° NE 17:52:40 10° SE
Cosmos 2278 Rocket 4.2 17:43:58 10° NW 17:47:10 15° NNW 17:50:21 10° NNE
Cosmos 1544 Rocket 3.6 17:43:04 10° N 17:47:24 56° ENE 17:51:41 10° SSE
Meteor 1-4 Rocket 4.4 17:44:06 10° NNW 17:47:30 34° W 17:50:50 10° SSW
CZ-2C R/B 3.8 17:42:54 10° S 17:47:52 44° W 17:52:48 10° NNW
ISS -2.1 17:45:33 10° W 17:48:32 31° SSW 17:51:30 10° SE
Meteor 2-9 Rocket 4.3 17:45:35 10° N 17:51:03 48° ENE 17:56:18 10° SE
Abrixas rocket 4.4 17:50:24 10° SSW 17:52:27 16° SSE 17:53:53 12° SE
Cosmos 1428 Rocket 4.4 17:47:07 10° N 17:53:22 85° E 17:59:32 10° S
Cosmos 1484 Rocket 3.0 17:49:40 10° S 17:53:41 79° WSW 17:57:44 10° NNW
YAOGAN 1 2.5 17:53:35 10° SSE 17:57:51 62° ENE 18:02:09 10° N
ERS-2 2.6 17:54:44 10° SE 17:58:09 38° ENE 18:01:35 10° N
Cosmos 2142 Rocket 4.4 17:54:23 10° S 18:00:34 88° E 18:06:45 10° N
CORIOLIS 4.2 17:57:29 10° SSE 18:02:55 84° WSW 18:08:21 10° NNW
CZ-4 R/B 1.2 17:59:06 10° SSE 18:02:58 90° S 18:06:59 10° NNW
USA 116 3.9 18:03:36 32° ENE 18:04:03 33° E 18:06:58 10° SSE
Cosmos 990 Rocket 4.0 18:00:15 10° S 18:05:19 62° ESE 18:09:08 18° NE
COSMO-SKYMED 1 3.4 18:04:23 26° ENE 18:05:26 29° E 18:09:13 10° SSE
NOSS 2-3 (D) 4.1 18:02:05 10° SSW 18:06:49 60° SE 18:10:11 23° ENE
Cosmos 2297 Rocket 2.1 18:01:27 10° NNW 18:07:09 76° ENE 18:12:48 10° SE
Gblst 52 Del rocket 4.4 18:03:29 10° W 18:08:59 70° S 18:13:33 17° ESE
Cosmos 1666 2.6 18:05:36 10° N 18:09:23 89° E 18:13:08 10° S
Cosmos 1812 4.0 18:06:35 10° SW 18:10:15 40° WNW 18:13:57 10° N
Cosmos 858 Rocket 4.4 18:05:37 10° SSW 18:10:48 81° ESE 18:14:54 17° NNE
NOSS 3-1 (C) 4.0 18:06:28 10° WSW 18:12:28 54° NNW 18:17:20 20° NE
Cosmos 468 4.5 18:09:12 10° NNW 18:14:35 86° ENE 18:19:55 10° SSE
Cosmos 1943 Rocket 3.2 18:09:22 10° WSW 18:14:43 41° NW 18:19:36 12° NNE
Cosmos 2279 Rocket 3.9 18:08:38 10° S 18:14:54 81° E 18:21:12 10° NNE
NOSS 3-2 (A) 3.9 18:08:48 10° NW 18:16:03 85° NE 18:24:06 10° SE
Meteor 1-18 Rocket 4.4 18:11:39 10° SSW 18:17:14 76° WNW 18:22:58 10° NNE
USA 161 3.7 18:17:02 10° NNW 18:19:21 24° WNW 18:21:46 10° SW
Meteor 1-13 Rocket 4.3 18:15:10 10° S 18:20:36 56° E 18:25:53 12° NNE
NOSS 3-2 (C) 3.9 18:14:29 10° NW 18:21:42 77° NE 18:29:44 10° SE
Cosmos 1975 Rocket 3.3 18:17:17 10° SSW 18:21:46 73° WNW 18:26:17 10° N
Cosmos 2150 Rocket 4.0 18:17:10 10° SSW 18:22:37 75° ESE 18:26:22 21° NNE
Meteor 2-4 Rocket 3.8 18:20:46 10° SSE 18:25:57 48° E 18:29:01 23° NNE
SJ 16-02 2.6 18:22:30 10° SSE 18:25:04 24° SE 18:25:04 24° SE
Meteor 1-15 Rocket 4.3 18:22:45 10° N 18:28:38 58° ENE 18:34:27 10° SSE
Cosmos 2180 Rocket 4.5 18:25:06 10° S 18:31:29 86° E 18:37:56 10° NNE
Cosmos 158 Rocket 4.1 18:27:21 10° NNW 18:32:32 73° WSW 18:37:31 10° SSE
ATLAS 2AS CENTAUR R/B 3.1 18:26:27 10° SSW 18:34:11 61° SE 18:38:42 28° ENE
Cosmos 1656 4.4 18:30:10 10° SSE 18:34:44 30° ESE 18:34:44 30° ESE
SPOT 3 Rocket 3.4 18:30:26 10° SSE 18:35:37 80° ENE 18:40:49 10° NNW
ATLAS 3B R/B 3.2 18:29:19 10° NW 18:35:54 57° SW 18:42:15 10° SSE
NOSS 2-3 (E) 4.0 18:32:07 10° SW 18:37:02 90° SE 18:39:38 34° NE
MONITOR-E 4.2 18:36:58 10° S 18:40:01 76° WSW 18:43:06 10° NNW
EO 1 Del DPAF 4.1 18:43:09 34° SSE 18:43:09 34° SSE 18:45:40 10° S
Meteor 1-28 Rocket 3.5 18:40:06 23° N 18:42:17 63° WNW 18:46:01 10° SSW
Nadezhda 2 Rocket 4.5 18:36:05 10° N 18:42:18 61° ENE 18:48:35 10° SSE
Cosmos 2369 4.1 18:37:51 10° S 18:43:04 39° ESE 18:43:29 38° E
Cosmos 2278 4.2 18:39:39 10° S 18:44:51 38° ESE 18:45:04 38° ESE
Meteor 1-19 Rocket 4.2 18:41:52 10° SSW 18:47:35 89° WNW 18:53:14 11° NNE
Cosmos 2263 Rocket 3.3 18:43:24 10° NNW 18:47:30 26° NNE 18:47:30 26° NNE
Cosmos 1536 Rocket 3.4 18:45:31 10° S 18:49:51 76° E 18:50:50 53° NNE
NOSS 3-1 (A) 4.2 18:44:07 10° W 18:50:07 49° NNW 18:53:34 28° NE
Cosmos 2251 Rocket 3.9 18:45:57 10° NNW 18:50:39 42° NE 18:50:39 42° NE
SKYMED 2 3.4 18:53:01 59° NE 18:53:47 77° ESE 18:58:07 10° S
DNEPR-1 R/B 3.8 18:54:01 10° NW 18:58:45 74° NE 18:59:47 56° ESE
CZ-2C R/B 4.1 18:56:25 21° N 18:59:27 66° WNW 19:04:07 10° SSW
Cosmos 1269 Rocket 4.2 18:54:17 10° NNW 18:59:35 70° WSW 19:04:51 10° SSE
FENGYUN 3A 3.9 18:59:27 10° S 19:04:48 68° WSW 19:10:11 10° NNW
Cosmos 2369 Rocket 4.1 19:01:02 10° WNW 19:05:11 21° NNW 19:08:05 14° N
Cosmos 1818 4.1 19:00:27 10° WSW 19:05:46 52° NW 19:07:34 37° NNE
Landsat 4 4.0 19:08:19 64° WNW 19:08:20 64° WNW 19:12:08 10° SSW
Cosmos 2266 Rocket 4.4 19:03:03 10° NNW 19:08:59 60° W 19:14:59 10° S
Cosmos 1697 Rocket 3.8 19:04:57 10° S 19:07:58 28° SSE 19:07:58 28° SSE
FengYun 1-2 T 4.1 19:06:28 10° SSE 19:12:05 83° ENE 19:17:48 10° NNW
NOSS 2-3 (C) 4.4 19:07:48 10° WSW 19:12:47 64° NW 19:14:17 47° NNE
Cosmos 1125 Rocket 3.4 19:08:51 10° SSW 19:13:57 69° SE 19:13:57 69° SE
Cosmos 494 Rocket 3.8 19:09:24 10° NNW 19:14:42 80° ENE 19:15:05 75° ESE
COSMOS 2455 3.8 19:12:17 10° NW 19:17:07 32° NNE 19:17:07 32° NNE
CENTAUR R/B 2.9 19:11:41 10° NW 19:19:16 78° NE 19:22:01 46° ESE
ALOS 3.3 19:17:05 10° S 19:21:33 45° W 19:26:03 10° NNW
Cosmos 2227 Rocket 3.9 19:18:44 10° NW 19:23:41 32° WSW 19:28:36 10° SSW
Meteor 1-23 Rocket 4.2 19:23:50 10° SSW 19:29:36 85° WNW 19:30:58 55° N
Cosmos 2278 Rocket 4.3 19:30:35 10° NNW 19:32:49 14° N 19:32:49 14° N
COSMO-SKYMED 1 3.7 19:41:36 41° WNW 19:41:44 41° WNW 19:45:49 10° SW
Cosmos 372 Rocket 4.4 19:39:06 10° SSW 19:43:19 58° SW 19:43:19 58° SW
Cosmos 2297 Rocket 4.3 19:46:13 10° NW 19:50:39 24° WSW 19:55:04 10° SSW
Cosmos 1943 Rocket 4.3 19:56:25 10° WNW 20:00:04 17° NNW 20:01:08 16° N
SJ 16-02 3.4 20:00:18 10° SW 20:02:07 23° WSW 20:02:07 23° WSW
ATLAS 2AS CENTAUR R/B 3.3 20:17:32 10° WSW 20:25:28 60° NNW 20:26:09 58° N
Cosmos 2263 Rocket 4.0 20:27:09 10° NNW 20:29:12 23° NNW 20:29:12 23° NNW
CENTAUR R/B 4.0 21:02:38 10° NW 21:09:14 41° WSW 21:09:14 41° WSW
